2019-300T04:46:18.895,   1, 180,   1,   120,   4,          0,     46.128,  99216.844,    72.665,   -13.946,     0.126,   240.496, 2, 5.486E-04, -1.00,   2,  3.562E-03,  6.531E-05,  6.293E-13,  1.782E-14,  1.103E+03,  3.122E+01, 255
2019-300T04:48:18.897,   1, 180,   1,   120,   4,          0,     46.128,  99216.844,    72.658,   -13.945,     0.126,   239.286, 2, 5.486E-04, -1.00,   2,  3.276E-03,  6.596E-05,  4.347E-13,  1.710E-14,  8.281E+02,  3.258E+01, 255
2019-300T04:50:18.898,   1, 180,   1,   120,   4,          0,     46.128,  99216.844,    72.652,   -13.944,     0.126,   238.077, 2, 5.486E-04, -1.00,   2,  3.361E-03,  6.583E-05,  5.879E-13,  1.769E-14,  1.092E+03,  3.285E+01, 255
2019-300T04:52:18.900,   1, 180,   1,   120,   4,          0,     46.128,  99216.844,    72.645,   -13.943,     0.126,   236.868, 2, 5.486E-04, -1.00,   2,  3.626E-03,  6.737E-05,  5.658E-13,  1.743E-14,  9.739E+02,  3.000E+01, 255
2019-300T04:54:18.901,   1, 180,   1,   120,   4,          0,     46.128,  99216.844,    72.638,   -13.942,     0.126,   235.658, 2, 5.486E-04, -1.00,   2,  3.066E-03,  6.569E-05,  3.975E-13,  1.704E-14,  8.092E+02,  3.469E+01, 255
2019-300T05:42:18.934,   1, 180,   1,   120,   4,          0,     46.128,  99216.844,    72.472,   -13.916,     0.125,   206.632, 2, 5.486E-04, -1.00,   2,  3.176E-03,  6.674E-05,  5.243E-13,  1.834E-14,  1.030E+03,  3.605E+01, 255
2019-300T05:44:18.935,   1, 180,   1,   120,   4,          0,     46.128,  99216.844,    72.465,   -13.915,     0.125,   205.423, 2, 5.486E-04, -1.00,   2,  3.964E-03,  6.848E-05,  8.511E-13,  1.912E-14,  1.340E+03,  3.011E+01, 255
2019-300T05:46:18.937,   1, 180,   1,   120,   4,          0,     46.128,  99216.844,    72.458,   -13.914,     0.125,   204.214, 2, 5.486E-04, -1.00,   2,  3.864E-03,  6.555E-05,  8.111E-13,  1.823E-14,  1.310E+03,  2.945E+01, 255
2019-300T05:48:18.938,   1, 180,   1,   120,   4,          0,     46.128,  99216.844,    72.451,   -13.913,     0.125,   203.004, 2, 5.486E-04, -1.00,   2,  3.958E-03,  6.924E-05,  7.779E-13,  1.839E-14,  1.227E+03,  2.900E+01, 255
2019-300T05:50:18.939,   1, 180,   1,   120,   4,          0,     46.128,  99216.844,    72.444,   -13.912,     0.125,   201.795, 2, 5.486E-04, -1.00,   2,  3.367E-03,  6.777E-05,  6.537E-13,  1.887E-14,  1.212E+03,  3.498E+01, 255
2019-300T05:52:18.941,   1, 180,   1,   120,   4,          0,     46.128,  99216.844,    72.438,   -13.911,     0.125,   200.585, 2, 5.486E-04, -1.00,   2,  3.607E-03,  6.605E-05,  7.406E-13,  1.842E-14,  1.281E+03,  3.187E+01, 255
2019-300T06:08:18.952,   1, 180,   1,   120,   4,          0,     46.128,  99216.844,    72.382,   -13.903,     0.125,   190.910, 2, 5.486E-04, -1.00,   2,  3.811E-03,  6.785E-05,  7.732E-13,  1.866E-14,  1.266E+03,  3.056E+01, 255
2019-300T06:10:18.953,   1, 180,   1,   120,   4,          0,     46.128,  99216.844,    72.375,   -13.901,     0.125,   189.701, 2, 5.486E-04, -1.00,   2,  3.866E-03,  6.708E-05,  7.200E-13,  1.834E-14,  1.162E+03,  2.960E+01, 255
2019-300T06:12:18.954,   1, 180,   1,   120,   4,          0,     46.128,  99216.844,    72.368,   -13.900,     0.125,   188.491, 2, 5.486E-04, -1.00,   2,  3.829E-03,  7.116E-05,  6.342E-13,  1.868E-14,  1.034E+03,  3.045E+01, 255
2019-300T06:14:18.956,   1, 180,   1,   120,   4,          0,     46.128,  99216.844,    72.361,   -13.899,     0.125,   187.282, 2, 5.486E-04, -1.00,   2,  4.114E-03,  7.195E-05,  7.761E-13,  1.927E-14,  1.177E+03,  2.924E+01, 255
2019-300T06:16:18.957,   1, 180,   1,   120,   4,          0,     46.128,  99216.844,    72.354,   -13.898,     0.125,   186.072, 2, 5.486E-04, -1.00,   2,  3.876E-03,  6.945E-05,  6.560E-13,  1.837E-14,  1.056E+03,  2.958E+01, 255
2019-300T06:18:18.958,   1, 180,   1,   120,   4,          0,     46.128,  99216.844,    72.348,   -13.897,     0.124,   184.863, 2, 5.486E-04, -1.00,   2,  4.146E-03,  7.151E-05,  7.843E-13,  1.869E-14,  1.181E+03,  2.814E+01, 255
2019-300T06:20:18.960,   1, 180,   1,   120,   4,          0,     46.128,  99216.844,    72.341,   -13.896,     0.124,   183.654, 2, 5.486E-04, -1.00,   2,  4.079E-03,  6.895E-05,  7.804E-13,  1.908E-14,  1.194E+03,  2.919E+01, 255
2019-300T06:22:18.961,   1, 180,   1,   120,   4,          0,     46.128,  99216.844,    72.334,   -13.895,     0.124,   182.444, 2, 5.486E-04, -1.00,   2,  4.595E-03,  7.088E-05,  8.770E-13,  1.873E-14,  1.191E+03,  2.544E+01, 255
2019-300T06:24:18.963,   1, 180,   1,   120,   4,          0,     46.128,  99216.844,    72.327,   -13.894,     0.124,   181.235, 2, 5.486E-04, -1.00,   2,  4.374E-03,  7.433E-05,  8.491E-13,  1.977E-14,  1.212E+03,  2.821E+01, 255
2019-300T06:26:18.964,   1, 180,   1,   120,   4,          0,     46.128,  99216.844,    72.320,   -13.893,     0.124,   180.025, 2, 5.486E-04, -1.00,   2,  3.628E-03,  6.893E-05,  6.031E-13,  1.839E-14,  1.038E+03,  3.164E+01, 255
2019-300T06:28:18.965,   1, 180,   1,   120,   4,          0,     46.128,  99216.844,    72.313,   -13.892,     0.124,   178.816, 2, 5.486E-04, -1.00,   2,  3.578E-03,  6.771E-05,  6.693E-13,  1.887E-14,  1.167E+03,  3.292E+01, 255
2019-300T06:30:18.967,   1, 180,   1,   120,   4,          0,     46.128,  99216.844,    72.306,   -13.891,     0.124,   177.607, 2, 5.486E-04, -1.00,   2,  3.526E-03,  6.821E-05,  6.763E-13,  1.879E-14,  1.197E+03,  3.327E+01, 255
2019-300T06:32:18.968,   1, 180,   1,   120,   4,          0,     46.128,  99216.844,    72.299,   -13.890,     0.124,   176.397, 2, 5.486E-04, -1.00,   2,  3.436E-03,  6.821E-05,  5.731E-13,  1.882E-14,  1.041E+03,  3.418E+01, 255
2019-300T06:36:18.971,   1, 180,   1,   120,   4,          0,     46.128,  99216.844,    72.285,   -13.888,     0.124,   173.978, 2, 5.486E-04, -1.00,   2,  3.285E-03,  6.605E-05,  6.281E-13,  1.851E-14,  1.193E+03,  3.517E+01, 255
2019-300T06:38:18.972,   1, 180,   1,   120,   4,          0,     46.128,  99216.844,    72.278,   -13.887,     0.124,   172.769, 2, 5.486E-04, -1.00,   2,  3.245E-03,  6.568E-05,  6.041E-13,  1.844E-14,  1.162E+03,  3.547E+01, 255
2019-300T06:40:18.974,   1, 180,   1,   120,   4,          0,     46.128,  99216.844,    72.271,   -13.886,     0.124,   171.559, 2, 5.486E-04, -1.00,   2,  3.197E-03,  6.723E-05,  6.494E-13,  1.908E-14,  1.268E+03,  3.724E+01, 255
2019-300T06:42:18.975,   1, 180,   1,   120,   4,          0,     46.128,  99216.844,    72.264,   -13.884,     0.124,   170.350, 2, 5.486E-04, -1.00,   2,  3.731E-03,  6.839E-05,  7.443E-13,  1.855E-14,  1.245E+03,  3.103E+01, 255
2019-300T06:44:18.976,   1, 180,   1,   120,   4,          0,     46.128,  99216.844,    72.257,   -13.883,     0.124,   169.141, 2, 5.486E-04, -1.00,   2,  3.677E-03,  6.694E-05,  7.049E-13,  1.841E-14,  1.197E+03,  3.125E+01, 255
2019-300T06:46:18.978,   1, 180,   1,   120,   4,          0,     46.128,  99216.844,    72.250,   -13.882,     0.124,   167.931, 2, 5.486E-04, -1.00,   2,  3.754E-03,  6.916E-05,  5.848E-13,  1.857E-14,  9.721E+02,  3.087E+01, 255
2019-300T06:48:18.979,   1, 180,   1,   120,   4,          0,     46.128,  99216.844,    72.244,   -13.881,     0.124,   166.722, 2, 5.486E-04, -1.00,   2,  4.360E-03,  6.926E-05,  8.602E-13,  1.881E-14,  1.231E+03,  2.693E+01, 255
2019-300T06:50:18.980,   1, 180,   1,   120,   4,          0,     46.128,  99216.844,    72.237,   -13.880,     0.124,   165.512, 2, 5.486E-04, -1.00,   2,  4.331E-03,  6.950E-05,  7.748E-13,  1.860E-14,  1.117E+03,  2.680E+01, 255
2019-300T06:52:18.982,   1, 180,   1,   120,   4,          0,     46.128,  99216.844,    72.230,   -13.879,     0.124,   164.303, 2, 5.486E-04, -1.00,   2,  4.396E-03,  6.917E-05,  7.671E-13,  1.788E-14,  1.089E+03,  2.538E+01, 255
2019-300T06:54:18.983,   1, 180,   1,   120,   4,          0,     46.128,  99216.844,    72.223,   -13.878,     0.124,   163.094, 2, 5.486E-04, -1.00,   2,  4.365E-03,  6.883E-05,  7.222E-13,  1.778E-14,  1.033E+03,  2.542E+01, 255
2019-300T06:56:18.984,   1, 180,   1,   120,   4,          0,     46.128,  99216.844,    72.216,   -13.877,     0.124,   161.884, 2, 5.486E-04, -1.00,   2,  4.300E-03,  6.973E-05,  9.401E-13,  1.979E-14,  1.365E+03,  2.873E+01, 255
2019-300T06:58:18.986,   1, 180,   1,   120,   4,          0,     46.128,  99216.844,    72.209,   -13.876,     0.124,   160.675, 2, 5.486E-04, -1.00,   2,  4.352E-03,  7.004E-05,  6.722E-13,  1.734E-14,  9.640E+02,  2.486E+01, 255
2019-300T07:00:18.987,   1, 180,   1,   120,   4,          0,     46.128,  99216.844,    72.202,   -13.875,     0.124,   159.465, 2, 5.486E-04, -1.00,   2,  4.114E-03,  6.779E-05,  8.755E-13,  1.918E-14,  1.328E+03,  2.910E+01, 255
2019-300T07:02:18.989,   1, 180,   1,   120,   4,          0,     46.128,  99216.844,    72.195,   -13.874,     0.124,   158.256, 2, 5.486E-04, -1.00,   2,  4.262E-03,  6.887E-05,  7.175E-13,  1.760E-14,  1.051E+03,  2.577E+01, 255
2019-300T07:04:18.990,   1, 180,   1,   120,   4,          0,     46.128,  99216.844,    72.188,   -13.873,     0.124,   157.047, 2, 5.486E-04, -1.00,   2,  4.208E-03,  6.987E-05,  7.678E-13,  1.860E-14,  1.139E+03,  2.759E+01, 255
2019-300T07:06:18.991,   1, 180,   1,   120,   4,          0,     46.128,  99216.844,    72.181,   -13.872,     0.124,   155.837, 2, 5.486E-04, -1.00,   2,  3.940E-03,  6.571E-05,  7.295E-13,  1.813E-14,  1.156E+03,  2.872E+01, 255
2019-300T07:08:18.993,   1, 180,   1,   120,   4,          0,     46.128,  99216.844,    72.174,   -13.871,     0.124,   154.628, 2, 5.486E-04, -1.00,   2,  3.541E-03,  6.554E-05,  5.647E-13,  1.756E-14,  9.954E+02,  3.096E+01, 255
2019-300T07:10:18.994,   1, 180,   1,   120,   4,          0,     46.128,  99216.844,    72.167,   -13.870,     0.124,   153.418, 2, 5.486E-04, -1.00,   2,  3.591E-03,  6.520E-05,  7.328E-13,  1.828E-14,  1.274E+03,  3.178E+01, 255
2019-300T07:12:18.995,   1, 180,   1,   120,   4,          0,     46.128,  99216.844,    72.160,   -13.868,     0.124,   152.209, 2, 5.486E-04, -1.00,   2,  3.633E-03,  6.643E-05,  6.975E-13,  1.836E-14,  1.198E+03,  3.154E+01, 255
2019-300T07:14:18.997,   1, 180,   1,   120,   4,          0,     46.128,  99216.844,    72.153,   -13.867,     0.124,   150.999, 2, 5.486E-04, -1.00,   2,  3.602E-03,  6.726E-05,  6.007E-13,  1.815E-14,  1.041E+03,  3.145E+01, 255
2019-300T07:16:18.998,   1, 180,   1,   120,   4,          0,     46.128,  99216.844,    72.146,   -13.866,     0.124,   149.790, 2, 5.486E-04, -1.00,   2,  3.704E-03,  6.689E-05,  5.866E-13,  1.808E-14,  9.884E+02,  3.046E+01, 255
2019-300T07:18:19.000,   1, 180,   1,   120,   4,          0,     46.128,  99216.844,    72.139,   -13.865,     0.124,   148.581, 2, 5.486E-04, -1.00,   2,  4.139E-03,  7.093E-05,  6.833E-13,  1.850E-14,  1.030E+03,  2.790E+01, 255
2019-300T07:22:19.002,   1, 180,   1,   120,   4,          0,     46.128,  99216.844,    72.125,   -13.863,     0.124,   146.162, 2, 5.486E-04, -1.00,   2,  3.852E-03,  6.867E-05,  6.353E-13,  1.879E-14,  1.029E+03,  3.045E+01, 255
2019-300T07:24:19.004,   1, 180,   1,   120,   4,          0,     46.128,  99216.844,    72.118,   -13.862,     0.124,   144.952, 2, 5.486E-04, -1.00,   2,  4.334E-03,  7.079E-05,  7.879E-13,  1.913E-14,  1.135E+03,  2.755E+01, 255
2019-300T07:26:19.005,   1, 180,   1,   120,   4,          0,     46.128,  99216.844,    72.111,   -13.861,     0.124,   143.743, 2, 5.486E-04, -1.00,   2,  3.740E-03,  6.974E-05,  5.516E-13,  1.882E-14,  9.206E+02,  3.140E+01, 255
2019-300T07:28:19.006,   1, 180,   1,   120,   4,          0,     46.128,  99216.844,    72.104,   -13.860,     0.124,   142.534, 2, 5.486E-04, -1.00,   2,  4.094E-03,  7.143E-05,  6.068E-13,  1.828E-14,  9.249E+02,  2.787E+01, 255
2019-300T07:30:19.008,   1, 180,   1,   120,   4,          0,     46.128,  99216.844,    72.098,   -13.859,     0.124,   141.324, 2, 5.486E-04, -1.00,   2,  4.285E-03,  7.309E-05,  5.303E-13,  1.850E-14,  7.725E+02,  2.694E+01, 255
2019-300T07:32:19.009,   1, 180,   1,   120,   4,          0,     46.128,  99216.844,    72.091,   -13.858,     0.124,   140.115, 2, 5.486E-04, -1.00,   2,  4.697E-03,  7.407E-05,  7.113E-13,  1.928E-14,  9.452E+02,  2.562E+01, 255
2019-300T07:34:19.010,   1, 180,   1,   120,   4,          0,     46.128,  99216.844,    72.084,   -13.857,     0.123,   138.905, 2, 5.486E-04, -1.00,   2,  4.266E-03,  7.186E-05,  5.603E-13,  1.824E-14,  8.198E+02,  2.669E+01, 255
2019-300T07:36:19.012,   1, 180,   1,   120,   4,          0,     46.128,  99216.844,    72.077,   -13.856,     0.123,   137.696, 2, 5.486E-04, -1.00,   2,  4.602E-03,  7.311E-05,  6.776E-13,  1.848E-14,  9.190E+02,  2.506E+01, 255
2019-300T07:38:19.013,   1, 180,   1,   120,   4,          0,     46.128,  99216.844,    72.070,   -13.855,     0.123,   136.487, 2, 5.486E-04, -1.00,   2,  4.774E-03,  7.342E-05,  7.780E-13,  1.855E-14,  1.017E+03,  2.426E+01, 255
2019-300T07:40:19.015,   1, 180,   1,   120,   4,          0,     46.128,  99216.844,    72.063,   -13.853,     0.123,   135.277, 2, 5.486E-04, -1.00,   2,  4.515E-03,  7.013E-05,  7.296E-13,  1.842E-14,  1.009E+03,  2.546E+01, 255
2019-300T07:42:19.016,   1, 180,   1,   120,   4,          0,     46.128,  99216.844,    72.056,   -13.852,     0.123,   134.068, 2, 5.486E-04, -1.00,   2,  4.420E-03,  6.958E-05,  7.373E-13,  1.838E-14,  1.041E+03,  2.596E+01, 255
2019-300T07:44:19.017,   1, 180,   1,   120,   4,          0,     46.128,  99216.844,    72.049,   -13.851,     0.123,   132.858, 2, 5.486E-04, -1.00,   2,  4.288E-03,  7.367E-05,  6.903E-13,  1.892E-14,  1.005E+03,  2.754E+01, 255
2019-300T07:46:19.019,   1, 180,   1,   120,   4,          0,     46.128,  99216.844,    72.042,   -13.850,     0.123,   131.649, 2, 5.486E-04, -1.00,   2,  3.987E-03,  6.870E-05,  6.619E-13,  1.854E-14,  1.036E+03,  2.903E+01, 255
2019-300T07:48:19.020,   1, 180,   1,   120,   4,          0,     46.128,  99216.844,    72.035,   -13.849,     0.123,   130.439, 2, 5.486E-04, -1.00,   2,  4.228E-03,  7.099E-05,  7.440E-13,  1.916E-14,  1.098E+03,  2.828E+01, 255
2019-300T07:50:19.021,   1, 180,   1,   120,   4,          0,     46.128,  99216.844,    72.028,   -13.848,     0.123,   129.230, 2, 5.486E-04, -1.00,   2,  4.340E-03,  6.949E-05,  7.511E-13,  1.865E-14,  1.080E+03,  2.681E+01, 255
2019-300T07:52:19.023,   1, 180,   1,   120,   4,          0,     46.128,  99216.844,    72.021,   -13.847,     0.123,   128.021, 2, 5.486E-04, -1.00,   2,  4.326E-03,  7.073E-05,  6.910E-13,  1.857E-14,  9.970E+02,  2.679E+01, 255
2019-300T07:54:19.024,   1, 180,   1,   120,   4,          0,     46.128,  99216.844,    72.014,   -13.846,     0.123,   126.811, 2, 5.486E-04, -1.00,   2,  4.136E-03,  7.140E-05,  6.485E-13,  1.833E-14,  9.786E+02,  2.766E+01, 255
2019-300T07:56:19.025,   1, 180,   1,   120,   4,          0,     46.128,  99216.844,    72.007,   -13.845,     0.123,   125.602, 2, 5.486E-04, -1.00,   2,  4.007E-03,  6.958E-05,  6.668E-13,  1.844E-14,  1.039E+03,  2.872E+01, 255
2019-300T07:58:19.027,   1, 180,   1,   120,   4,          0,     46.128,  99216.844,    72.000,   -13.844,     0.123,   124.392, 2, 5.486E-04, -1.00,   2,  4.626E-03,  7.150E-05,  7.915E-13,  1.831E-14,  1.068E+03,  2.470E+01, 255
2019-300T08:00:19.028,   1, 180,   1,   120,   4,          0,     46.128,  99216.844,    71.993,   -13.843,     0.123,   123.183, 2, 5.486E-04, -1.00,   2,  4.825E-03,  7.273E-05,  7.810E-13,  1.865E-14,  1.010E+03,  2.413E+01, 255
2019-300T08:02:19.030,   1, 180,   1,   120,   4,          0,     46.128,  99216.844,    71.986,   -13.842,     0.123,   121.974, 2, 5.486E-04, -1.00,   2,  4.449E-03,  7.063E-05,  6.986E-13,  1.834E-14,  9.801E+02,  2.573E+01, 255
2019-300T08:04:19.031,   1, 180,   1,   120,   4,          0,     46.128,  99216.844,    71.979,   -13.841,     0.123,   120.764, 2, 5.486E-04, -1.00,   2,  4.617E-03,  7.012E-05,  7.849E-13,  1.785E-14,  1.061E+03,  2.412E+01, 255
2019-300T08:06:19.032,   1, 180,   1,   120,   4,          0,     46.128,  99216.844,    71.972,   -13.840,     0.123,   119.555, 2, 5.486E-04, -1.00,   2,  4.357E-03,  6.834E-05,  7.448E-13,  1.790E-14,  1.067E+03,  2.564E+01, 255
2019-300T08:08:19.034,   1, 180,   1,   120,   4,          0,     46.128,  99216.844,    71.965,   -13.838,     0.123,   118.345, 2, 5.486E-04, -1.00,   2,  4.338E-03,  6.997E-05,  7.757E-13,  1.842E-14,  1.116E+03,  2.651E+01, 255
2019-300T08:10:19.035,   1, 180,   1,   120,   4,          0,     46.128,  99216.844,    71.958,   -13.837,     0.123,   117.136, 2, 5.486E-04, -1.00,   2,  4.401E-03,  6.971E-05,  8.028E-13,  1.872E-14,  1.139E+03,  2.655E+01, 255
2019-300T08:12:19.037,   1, 180,   1,   120,   4,          0,     46.128,  99216.844,    71.951,   -13.836,     0.123,   115.927, 2, 5.486E-04, -1.00,   2,  4.380E-03,  7.286E-05,  6.849E-13,  1.899E-14,  9.760E+02,  2.706E+01, 255
2019-300T08:14:19.038,   1, 180,   1,   120,   4,          0,     46.128,  99216.844,    71.944,   -13.835,     0.123,   114.717, 2, 5.486E-04, -1.00,   2,  4.451E-03,  7.247E-05,  6.646E-13,  1.860E-14,  9.320E+02,  2.608E+01, 255
2019-300T08:16:19.039,   1, 180,   1,   120,   4,          0,     46.128,  99216.844,    71.937,   -13.834,     0.123,   113.508, 2, 5.486E-04, -1.00,   2,  4.846E-03,  7.435E-05,  8.762E-13,  1.973E-14,  1.129E+03,  2.541E+01, 255
2019-300T08:18:19.041,   1, 180,   1,   120,   4,          0,     46.128,  99216.844,    71.930,   -13.833,     0.123,   112.298, 2, 5.486E-04, -1.00,   2,  4.737E-03,  7.449E-05,  6.482E-13,  1.858E-14,  8.541E+02,  2.448E+01, 255
2019-300T08:20:19.042,   1, 180,   1,   120,   4,          0,     46.128,  99216.844,    71.923,   -13.832,     0.123,   111.089, 2, 5.486E-04, -1.00,   2,  4.675E-03,  7.110E-05,  7.895E-13,  1.895E-14,  1.054E+03,  2.530E+01, 255
2019-300T08:22:19.043,   1, 180,   1,   120,   4,          0,     46.128,  99216.844,    71.916,   -13.831,     0.123,   109.879, 2, 5.486E-04, -1.00,   2,  4.304E-03,  7.239E-05,  5.537E-13,  1.871E-14,  8.031E+02,  2.714E+01, 255
2019-300T08:24:19.045,   1, 180,   1,   120,   4,          0,     46.128,  99216.844,    71.909,   -13.830,     0.123,   108.670, 2, 5.486E-04, -1.00,   2,  4.524E-03,  7.667E-05,  5.294E-13,  1.942E-14,  7.305E+02,  2.679E+01, 255
2019-300T08:26:19.046,   1, 180,   1,   120,   4,          0,     46.128,  99216.844,    71.902,   -13.829,     0.123,   107.461, 2, 5.486E-04, -1.00,   2,  4.287E-03,  7.486E-05,  6.039E-13,  1.981E-14,  8.792E+02,  2.883E+01, 255
2019-300T08:28:19.047,   1, 180,   1,   120,   4,          0,     46.128,  99216.844,    71.895,   -13.828,     0.123,   106.251, 2, 5.486E-04, -1.00,   2,  4.540E-03,  7.587E-05,  6.966E-13,  2.010E-14,  9.575E+02,  2.762E+01, 255
2019-300T08:30:19.049,   1, 180,   1,   120,   4,          0,     46.128,  99216.844,    71.888,   -13.827,     0.123,   105.042, 2, 5.486E-04, -1.00,   2,  4.566E-03,  7.532E-05,  7.748E-13,  2.030E-14,  1.059E+03,  2.775E+01, 255
2019-300T08:32:19.050,   1, 180,   1,   120,   4,          0,     46.128,  99216.844,    71.881,   -13.826,     0.123,   103.832, 2, 5.486E-04, -1.00,   2,  3.854E-03,  7.324E-05,  5.389E-13,  1.997E-14,  8.726E+02,  3.234E+01, 255
2019-300T08:34:19.051,   1, 180,   1,   120,   4,          0,     46.128,  99216.844,    71.874,   -13.824,     0.123,   102.623, 2, 5.486E-04, -1.00,   2,  4.321E-03,  7.622E-05,  7.615E-13,  2.157E-14,  1.100E+03,  3.115E+01, 255
2019-300T08:36:19.053,   1, 180,   1,   120,   4,          0,     46.128,  99216.844,    71.867,   -13.823,     0.123,   101.414, 2, 5.486E-04, -1.00,   2,  4.468E-03,  7.865E-05,  6.014E-13,  2.051E-14,  8.400E+02,  2.865E+01, 255
2019-300T08:38:19.054,   1, 180,   1,   120,   4,          0,     46.128,  99216.844,    71.860,   -13.822,     0.123,   100.204, 2, 5.486E-04, -1.00,   2,  4.406E-03,  7.444E-05,  5.994E-13,  1.937E-14,  8.491E+02,  2.744E+01, 255
2019-300T08:40:19.056,   1, 180,   1,   120,   4,          0,     46.128,  99216.844,    71.853,   -13.821,     0.123,    98.995, 2, 5.486E-04, -1.00,   2,  4.294E-03,  7.421E-05,  5.547E-13,  1.933E-14,  8.063E+02,  2.809E+01, 255
2019-300T08:42:19.057,   1, 180,   1,   120,   4,          0,     46.128,  99216.844,    71.846,   -13.820,     0.123,    97.785, 2, 5.486E-04, -1.00,   2,  4.229E-03,  7.471E-05,  6.940E-13,  2.021E-14,  1.024E+03,  2.983E+01, 255
2019-300T08:44:19.058,   1, 180,   1,   120,   4,          0,     46.128,  99216.844,    71.839,   -13.819,     0.123,    96.576, 2, 5.486E-04, -1.00,   2,  4.374E-03,  7.453E-05,  6.310E-13,  1.935E-14,  9.003E+02,  2.762E+01, 255
2019-300T08:46:19.060,   1, 180,   1,   120,   4,          0,     46.128,  99216.844,    71.832,   -13.818,     0.123,    95.367, 2, 5.486E-04, -1.00,   2,  3.990E-03,  7.195E-05,  5.439E-13,  1.903E-14,  8.510E+02,  2.977E+01, 255
2019-300T08:48:19.061,   1, 180,   1,   120,   4,          0,     46.128,  99216.844,    71.825,   -13.817,     0.123,    94.157, 2, 5.486E-04, -1.00,   2,  4.515E-03,  7.240E-05,  8.602E-13,  2.009E-14,  1.189E+03,  2.777E+01, 255
2019-300T08:50:19.062,   1, 180,   1,   120,   4,          0,     46.128,  99216.844,    71.818,   -13.816,     0.123,    92.948, 2, 5.486E-04, -1.00,   2,  4.240E-03,  7.537E-05,  6.107E-13,  2.003E-14,  8.991E+02,  2.948E+01, 255
2019-300T08:52:19.064,   1, 180,   1,   120,   4,          0,     46.128,  99216.844,    71.811,   -13.815,     0.122,    91.738, 2, 5.486E-04, -1.00,   2,  3.975E-03,  7.069E-05,  5.826E-13,  1.880E-14,  9.146E+02,  2.952E+01, 255
2019-300T08:54:19.065,   1, 180,   1,   120,   4,          0,     46.128,  99216.844,    71.804,   -13.814,     0.122,    90.529, 2, 5.486E-04, -1.00,   2,  3.990E-03,  6.919E-05,  5.265E-13,  1.737E-14,  8.237E+02,  2.718E+01, 255
2019-300T08:56:19.067,   1, 180,   1,   120,   4,          0,     46.128,  99216.844,    71.797,   -13.813,     0.122,    89.319, 2, 5.486E-04, -1.00,   2,  4.116E-03,  6.848E-05,  6.710E-13,  1.759E-14,  1.017E+03,  2.667E+01, 255
2019-300T08:58:19.068,   1, 180,   1,   120,   4,          0,     46.128,  99216.844,    71.790,   -13.812,     0.122,    88.110, 2, 5.486E-04, -1.00,   2,  3.887E-03,  6.640E-05,  6.467E-13,  1.734E-14,  1.038E+03,  2.785E+01, 255
2019-300T09:00:19.069,   1, 180,   1,   120,   4,          0,     46.128,  99216.844,    71.783,   -13.810,     0.122,    86.901, 2, 5.486E-04, -1.00,   2,  3.947E-03,  6.701E-05,  6.610E-13,  1.753E-14,  1.045E+03,  2.772E+01, 255
2019-300T09:02:19.071,   1, 180,   1,   120,   4,          0,     46.128,  99216.844,    71.776,   -13.809,     0.122,    85.691, 2, 5.486E-04, -1.00,   2,  4.018E-03,  6.520E-05,  7.181E-13,  1.801E-14,  1.115E+03,  2.797E+01, 255
2019-300T09:04:19.072,   1, 180,   1,   120,   4,          0,     46.128,  99216.844,    71.769,   -13.808,     0.122,    84.482, 2, 5.486E-04, -1.00,   2,  4.171E-03,  6.845E-05,  6.717E-13,  1.791E-14,  1.005E+03,  2.680E+01, 255
2019-300T09:06:19.074,   1, 180,   1,   120,   4,          0,     46.128,  99216.844,    71.762,   -13.807,     0.122,    83.272, 2, 5.486E-04, -1.00,   2,  3.985E-03,  6.767E-05,  5.564E-13,  1.706E-14,  8.714E+02,  2.671E+01, 255
2019-300T09:08:19.075,   1, 180,   1,   120,   4,          0,     46.128,  99216.844,    71.755,   -13.806,     0.122,    82.063, 2, 5.486E-04, -1.00,   2,  3.892E-03,  6.377E-05,  6.784E-13,  1.749E-14,  1.088E+03,  2.806E+01, 255
2019-300T09:10:19.076,   1, 180,   1,   120,   4,          0,     46.128,  99216.844,    71.748,   -13.805,     0.122,    80.854, 2, 5.486E-04, -1.00,   2,  3.520E-03,  6.411E-05,  6.343E-13,  1.790E-14,  1.124E+03,  3.174E+01, 255
2019-300T09:12:19.077,   1, 180,   1,   120,   4,          0,     46.128,  99216.844,    71.741,   -13.804,     0.122,    79.644, 2, 5.486E-04, -1.00,   2,  3.388E-03,  6.331E-05,  5.699E-13,  1.696E-14,  1.050E+03,  3.124E+01, 255
2019-300T09:14:19.079,   1, 180,   1,   120,   4,          0,     46.128,  99216.844,    71.734,   -13.803,     0.122,    78.435, 2, 5.486E-04, -1.00,   2,  2.981E-03,  6.074E-05,  4.516E-13,  1.682E-14,  9.455E+02,  3.521E+01, 255